period_start,C,m1,H,J0,J1,J2,J3,J4,J5,JA,JB,JC,JD,JJ,JK,JN,#
2014-08-24 00:01:31,-0.00,7.34,0.00,24.74,29.20,31.50,9.38,48.11,1001.72,2027.00,1429.85,1916.88,1979.74,499.48,485.98,42.22,0000 0000 0000 0000 000000
2014-08-24 00:06:32,0.02,7.34,0.00,24.75,29.20,31.51,9.46,48.67,1001.74,2027.00,1429.99,1916.91,1979.15,499.95,486.60,42.26,0000 0000 0000 0000 000000
2014-08-24 00:11:33,0.02,7.34,0.00,24.73,29.20,31.51,9.47,48.98,1001.84,2027.00,1430.00,1916.76,1979.02,499.90,486.53,42.30,0000 0000 0000 0000 000000
2014-08-24 00:16:34,0.00,7.34,0.00,24.76,29.20,31.51,9.50,48.72,1001.97,2027.00,1429.99,1916.67,1979.09,499.91,486.61,42.34,0000 0000 0000 0000 000000
2014-08-24 00:21:35,-0.01,7.34,0.00,24.76,29.20,31.52,9.49,48.83,1001.97,2027.00,1429.99,1916.79,1979.05,500.57,487.10,42.39,0000 0000 0000 0000 000000
2014-08-24 00:26:36,0.01,7.34,0.00,24.77,29.21,31.51,9.59,48.60,1001.98,2027.00,1429.99,1916.74,1979.02,500.36,486.90,42.43,0000 0000 0000 0000 000000
2014-08-24 00:31:37,0.01,7.34,0.00,24.77,29.22,31.51,9.53,48.59,1002.03,2026.99,1429.99,1916.45,1979.03,500.38,486.96,42.47,0000 0000 0000 0000 000000
2014-08-24 00:36:39,0.01,7.34,0.00,24.77,29.22,31.52,9.49,48.61,1002.33,2026.99,1429.99,1916.17,1979.01,499.88,487.00,42.51,0000 0000 0000 0000 000000
2014-08-24 00:41:40,-0.00,7.34,0.00,24.77,29.22,31.53,9.38,48.53,1002.43,2026.98,1429.99,1916.16,1979.00,499.90,486.71,42.55,0000 0000 0000 0000 000000
2014-08-24 00:46:41,0.01,7.34,0.00,24.77,29.22,31.52,9.53,48.60,1002.42,2026.96,1429.99,1916.12,1979.00,500.38,487.28,42.59,0000 0000 0000 0000 000000
2014-08-24 00:51:42,-0.01,7.34,0.00,24.76,29.22,31.53,9.44,48.57,1002.44,2026.91,1430.01,1916.10,1979.00,499.92,486.93,42.64,0000 0000 0000 0000 000000
2014-08-24 00:56:43,-0.01,7.34,0.00,24.75,29.22,31.52,9.50,48.94,1002.46,2026.86,1430.00,1916.08,1979.00,500.14,487.04,42.68,0000 0000 0000 0000 000000
2014-08-24 01:01:44,0.01,7.34,0.00,24.75,29.22,31.53,9.56,48.82,1002.46,2026.86,1430.00,1916.11,1978.99,499.81,486.93,42.72,0000 0000 0000 0000 000000
2014-08-24 01:06:45,-0.00,7.34,0.00,24.77,29.22,31.53,9.51,48.70,1002.46,2026.90,1430.00,1916.05,1978.99,500.26,487.13,42.76,0000 0000 0000 0000 000000
2014-08-24 01:11:46,-0.01,7.34,0.00,24.78,29.22,31.53,9.47,48.71,1002.46,2026.77,1430.00,1916.01,1978.99,500.11,486.87,42.80,0000 0000 0000 0000 000000
2014-08-24 01:16:47,-0.00,7.34,0.00,24.79,29.22,31.54,9.47,48.58,1002.49,2026.79,1430.00,1916.04,1978.99,499.74,486.59,42.84,0000 0000 0000 0000 000000
2014-08-24 01:21:48,0.00,7.34,0.00,24.78,29.22,31.54,9.49,48.50,1002.73,2026.86,1430.01,1916.08,1978.99,499.94,486.83,42.88,0000 0000 0000 0000 000000
2014-08-24 01:26:49,0.02,7.34,0.00,24.77,29.22,31.54,9.51,48.47,1002.91,2026.91,1430.00,1916.10,1978.99,499.92,487.16,42.93,0000 0000 0000 0000 000000
2014-08-24 01:31:51,-0.01,7.34,0.00,24.76,29.22,31.53,9.50,48.59,1002.94,2026.88,1430.02,1916.08,1978.99,499.90,487.14,42.97,0000 0000 0000 0000 000000
2014-08-24 01:36:52,0.00,7.34,0.00,24.76,29.22,31.53,9.48,48.35,1002.94,2026.89,1430.03,1916.09,1978.99,500.21,487.23,43.01,0000 0000 0000 0000 000000
2014-08-24 01:41:53,-0.01,7.34,0.00,24.75,29.22,31.54,9.46,48.49,1002.97,2026.82,1430.03,1916.08,1978.99,500.05,487.26,43.05,0000 0000 0000 0000 000000
2014-08-24 01:46:54,0.00,7.34,0.00,24.75,29.22,31.54,9.57,48.44,1003.25,2026.84,1430.03,1916.10,1978.99,500.38,487.75,43.09,0000 0000 0000 0000 000000
2014-08-24 01:51:55,0.00,7.34,0.00,24.76,29.22,31.52,9.54,48.52,1003.41,2026.87,1430.02,1916.14,1978.99,500.23,487.61,43.13,0000 0000 0000 0000 000000
2014-08-24 01:56:56,-0.00,7.34,0.00,24.76,29.22,31.54,9.45,48.51,1003.42,2026.91,1430.04,1916.17,1978.99,499.90,487.15,43.18,0000 0000 0000 0000 000000
2014-08-24 02:01:58,0.01,7.34,0.00,24.74,29.22,31.53,9.45,48.45,1003.41,2026.92,1430.01,1916.15,1978.99,499.94,487.47,43.22,0000 0000 0000 0000 000000
2014-08-24 02:06:59,0.00,7.34,0.00,24.75,29.22,31.52,9.52,48.40,1003.43,2026.93,1430.00,1916.13,1978.99,500.12,487.58,43.26,0000 0000 0000 0000 000000
2014-08-24 02:12:00,0.00,7.34,0.00,24.76,29.21,31.52,9.48,48.42,1003.43,2026.95,1430.00,1916.10,1979.00,499.49,486.95,43.30,0000 0000 0000 0000 000000
2014-08-24 02:17:01,0.01,7.34,0.00,24.74,29.21,31.53,9.53,48.65,1003.44,2026.96,1430.00,1916.08,1979.00,500.23,487.61,43.34,0000 0000 0000 0000 000000
2014-08-24 02:22:02,-0.01,7.34,0.00,24.73,29.20,31.52,9.48,48.61,1003.48,2026.90,1430.00,1916.04,1979.00,500.09,487.39,43.38,0000 0000 0000 0000 000000
2014-08-24 02:27:03,0.00,7.34,0.00,24.72,29.20,31.52,9.48,48.48,1003.72,2026.90,1430.00,1916.05,1979.00,500.15,487.81,43.43,0000 0000 0000 0000 000000
2014-08-24 02:32:04,0.01,7.34,0.00,24.72,29.20,31.52,9.37,48.48,1003.88,2026.94,1430.00,1916.05,1979.00,499.58,487.27,43.47,0000 0000 0000 0000 000000
2014-08-24 02:37:06,-0.00,7.34,0.00,24.71,29.20,31.51,9.53,48.67,1003.89,2026.95,1430.00,1916.06,1979.00,499.79,487.43,43.51,0000 0000 0000 0000 000000
2014-08-24 02:42:06,0.00,7.34,0.00,24.72,29.20,31.51,9.60,48.53,1003.91,2026.97,1430.00,1916.09,1979.01,500.52,487.89,43.55,0000 0000 0000 0000 000000
2014-08-24 02:47:08,0.00,7.34,0.00,24.74,29.20,31.51,9.50,48.44,1003.93,2026.99,1430.00,1916.15,1979.01,500.03,487.63,43.59,0000 0000 0000 0000 000000
2014-08-24 02:52:09,0.00,7.34,0.00,24.75,29.20,31.52,9.41,48.23,1004.10,2026.99,1430.00,1916.09,1979.00,499.29,487.10,43.63,0000 0000 0000 0000 000000
2014-08-24 02:57:10,0.00,7.34,0.00,24.74,29.20,31.52,9.42,48.32,1004.38,2026.98,1430.00,1916.08,1979.00,499.79,487.70,43.67,0000 0000 0000 0000 000000
2014-08-24 03:02:11,-0.00,7.34,0.00,24.76,29.20,31.51,9.44,48.45,1004.41,2026.97,1430.01,1916.05,1979.00,500.23,488.09,43.72,0000 0000 0000 0000 000000
2014-08-24 03:07:12,-0.00,7.34,0.00,24.75,29.20,31.51,9.45,48.49,1004.55,2026.98,1430.00,1916.07,1979.00,499.43,487.33,43.76,0000 0000 0000 0000 000000
2014-08-24 03:12:13,-0.00,7.34,0.00,24.75,29.20,31.51,9.52,48.41,1004.80,2026.98,1430.01,1916.06,1979.00,500.00,488.12,43.80,0000 0000 0000 0000 000000
2014-08-24 03:17:15,0.00,7.34,0.00,24.76,29.20,31.52,9.52,48.35,1004.90,2026.98,1430.00,1916.03,1978.99,499.93,488.05,43.84,0000 0000 0000 0000 000000
2014-08-24 03:22:16,-0.01,7.34,0.00,24.77,29.20,31.52,9.48,48.32,1004.91,2026.97,1430.00,1916.04,1978.99,500.60,488.55,43.88,0000 0000 0000 0000 000000
2014-08-24 03:27:17,0.00,7.34,0.00,24.75,29.20,31.53,9.63,48.41,1005.06,2026.97,1430.01,1916.01,1978.99,500.72,488.75,43.92,0000 0000 0000 0000 000000
2014-08-24 03:32:18,-0.00,7.34,0.00,24.77,29.20,31.52,9.49,48.48,1005.26,2026.95,1430.00,1916.00,1978.96,500.11,488.47,43.97,0000 0000 0000 0000 000000
2014-08-24 03:37:19,0.02,7.34,0.00,24.77,29.20,31.53,9.41,48.54,1005.29,2026.95,1430.00,1916.00,1978.64,499.73,487.90,44.01,0000 0000 0000 0000 000000
2014-08-24 03:42:20,-0.00,7.34,0.00,24.77,29.20,31.53,9.52,48.66,1005.37,2026.94,1430.00,1916.00,1978.32,499.90,488.21,44.05,0000 0000 0000 0000 000000
2014-08-24 03:47:21,0.01,7.34,0.00,24.75,29.20,31.53,9.51,48.74,1005.37,2026.88,1430.00,1915.99,1978.09,499.78,487.99,44.09,0000 0000 0000 0000 000000
2014-08-24 03:52:22,0.01,7.34,0.00,24.77,29.20,31.52,9.64,48.71,1005.39,2026.93,1430.00,1915.99,1978.07,500.26,488.73,44.13,0000 0000 0000 0000 000000
2014-08-24 03:57:23,0.00,7.34,0.00,24.77,29.20,31.51,9.56,48.62,1005.40,2026.92,1429.99,1915.98,1978.02,500.45,488.82,44.18,0000 0000 0000 0000 000000
2014-08-24 04:02:25,0.00,7.34,0.00,24.77,29.20,31.53,9.52,48.61,1005.64,2026.94,1429.99,1915.97,1978.01,499.79,488.17,44.22,0000 0000 0000 0000 000000
2014-08-24 04:07:26,-0.01,7.34,0.00,24.76,29.20,31.54,9.55,48.59,1005.86,2026.89,1429.98,1915.94,1978.02,500.10,488.54,44.26,0000 0000 0000 0000 000000
2014-08-24 04:12:27,0.01,7.34,0.00,24.77,29.21,31.54,9.54,48.58,1005.87,2026.91,1429.97,1915.86,1978.00,499.79,488.26,44.30,0000 0000 0000 0000 000000
2014-08-24 04:17:28,0.03,7.34,0.00,24.77,29.21,31.53,9.51,48.40,1005.88,2026.91,1429.93,1915.66,1978.00,499.71,488.26,44.34,0000 0000 0000 0000 000000
2014-08-24 04:22:29,-0.01,7.34,0.00,24.78,29.22,31.53,9.58,48.65,1005.91,2026.68,1429.94,1915.24,1977.99,499.97,488.72,44.38,0000 0000 0000 0000 000000
2014-08-24 04:27:31,0.01,7.34,0.00,24.76,29.22,31.54,9.52,48.60,1006.32,2026.64,1429.83,1915.08,1977.96,499.97,488.74,44.42,0000 0000 0000 0000 000000
2014-08-24 04:32:32,-0.01,7.34,0.00,24.75,29.22,31.53,9.42,48.73,1006.36,2026.59,1429.88,1915.05,1977.93,499.68,488.37,44.47,0000 0000 0000 0000 000000
2014-08-24 04:37:33,0.04,7.35,0.00,24.75,29.22,31.52,9.56,48.75,1006.37,2026.71,1429.86,1915.02,1977.81,499.84,488.77,44.51,0000 0000 0000 0000 000000
2014-08-24 04:42:34,-0.01,7.35,0.00,24.76,29.22,31.53,9.56,48.54,1006.44,2026.57,1429.75,1915.02,1977.41,500.27,489.04,44.55,0000 0000 0000 0000 000000
2014-08-24 04:47:35,-0.04,7.35,0.00,24.77,29.22,31.54,9.51,48.60,1006.66,2026.33,1429.73,1915.00,1977.06,499.96,488.87,44.59,0000 0000 0000 0000 000000
2014-08-24 04:52:36,-0.00,7.34,0.00,24.76,29.22,31.53,9.54,48.67,1006.71,2026.06,1429.40,1915.00,1977.01,500.45,489.19,44.63,0000 0000 0000 0000 000000
2014-08-24 04:57:37,0.02,7.34,0.00,24.76,29.22,31.53,9.56,48.60,1006.83,2026.03,1429.17,1914.98,1977.00,500.18,489.39,44.67,0000 0000 0000 0000 000000
2014-08-24 05:02:38,-0.00,7.34,0.00,24.78,29.22,31.54,9.59,48.92,1006.85,2026.04,1429.16,1914.97,1977.00,500.42,489.22,44.72,0000 0000 0000 0000 000000
2014-08-24 05:07:39,0.01,7.34,0.00,24.79,29.22,31.53,9.50,48.80,1006.86,2026.02,1429.03,1914.94,1976.99,499.74,488.74,44.76,0000 0000 0000 0000 000000
2014-08-24 05:12:40,0.01,7.35,0.00,24.78,29.22,31.54,9.54,48.81,1006.92,2026.01,1429.01,1914.78,1976.96,500.34,489.48,44.80,0000 0000 0000 0000 000000
2014-08-24 05:17:42,0.02,7.35,0.00,24.79,29.22,31.53,9.54,48.64,1007.16,2026.03,1429.00,1914.52,1976.91,500.36,489.56,44.84,0000 0000 0000 0000 000000
2014-08-24 05:22:43,0.03,7.35,0.00,24.82,29.23,31.54,9.57,48.75,1007.34,2026.02,1429.01,1914.24,1976.64,500.02,489.14,44.88,0000 0000 0000 0000 000000
2014-08-24 05:27:44,0.02,7.35,0.00,24.82,29.24,31.54,9.54,48.65,1007.34,2026.01,1429.00,1914.06,1976.40,499.91,489.09,44.92,0000 0000 0000 0000 000000
2014-08-24 05:32:45,0.01,7.35,0.00,24.82,29.25,31.54,9.57,48.79,1007.34,2026.00,1428.99,1914.02,1976.07,500.54,489.65,44.96,0000 0000 0000 0000 000000
2014-08-24 05:37:46,-0.00,7.35,0.00,24.82,29.25,31.55,9.54,48.91,1007.34,2026.00,1428.99,1914.00,1976.00,500.00,489.14,45.01,0000 0000 0000 0000 000000
2014-08-24 05:42:48,0.00,7.35,0.00,24.86,29.25,31.55,9.57,49.07,1007.34,2026.00,1428.98,1914.00,1976.00,500.21,489.33,45.05,0000 0000 0000 0000 000000
2014-08-24 05:47:49,0.01,7.35,0.00,24.87,29.25,31.57,9.56,49.19,1007.36,2026.00,1428.84,1914.00,1976.00,500.36,489.24,45.09,0000 0000 0000 0000 000000
2014-08-24 05:52:50,0.00,7.35,0.00,24.88,29.27,31.56,9.56,49.15,1007.49,2026.00,1428.77,1913.99,1975.99,500.32,489.42,45.13,0000 0000 0000 0000 000000
2014-08-24 05:57:51,0.00,7.35,0.00,24.88,29.27,31.57,9.52,49.10,1007.76,2026.00,1428.71,1913.98,1975.99,499.78,489.20,45.17,0000 0000 0000 0000 000000
2014-08-24 06:02:53,0.03,7.35,0.00,24.89,29.28,31.58,9.51,48.94,1007.82,2026.00,1428.37,1913.96,1975.98,499.98,489.25,45.21,0000 0000 0000 0000 000000
2014-08-24 06:07:54,0.02,7.35,0.00,24.92,29.30,31.59,9.54,49.11,1007.83,2026.00,1428.19,1913.90,1975.92,500.17,489.36,45.26,0000 0000 0000 0000 000000
2014-08-24 06:12:55,0.05,7.35,0.00,24.92,29.30,31.59,9.47,48.83,1007.85,2026.00,1428.03,1913.48,1975.78,500.03,489.27,45.30,0000 0000 0000 0000 000000
2014-08-24 06:17:56,0.02,7.36,0.00,24.96,29.30,31.60,9.59,49.00,1008.06,2025.99,1428.00,1913.22,1975.60,500.01,489.31,45.34,0000 0000 0000 0000 000000
2014-08-24 06:22:58,0.03,7.36,0.00,24.98,29.32,31.62,9.56,48.96,1008.24,2025.99,1428.00,1913.03,1975.14,500.05,489.24,45.38,0000 0000 0000 0000 000000
2014-08-24 06:27:59,0.00,7.36,0.00,24.99,29.32,31.63,9.58,48.79,1008.27,2025.99,1427.99,1913.01,1975.02,500.40,489.93,45.42,0000 0000 0000 0000 000000
2014-08-24 06:33:00,0.00,7.36,0.00,24.99,29.34,31.63,9.54,48.77,1008.30,2025.99,1427.99,1913.00,1975.00,500.24,489.53,45.46,0000 0000 0000 0000 000000
2014-08-24 06:38:01,0.00,7.36,0.00,25.01,29.35,31.63,9.49,48.75,1008.31,2025.98,1427.95,1913.00,1975.00,499.71,489.15,45.51,0000 0000 0000 0000 000000
2014-08-24 06:43:02,0.01,7.36,0.00,25.04,29.36,31.65,9.49,48.75,1008.31,2025.98,1427.86,1912.98,1974.98,499.94,489.10,45.55,0000 0000 0000 0000 000000
2014-08-24 06:48:03,0.05,7.36,0.00,25.07,29.37,31.67,9.49,48.26,1008.31,2025.95,1427.28,1912.93,1974.91,499.68,489.04,45.59,0000 0000 0000 0000 000000
2014-08-24 06:53:05,0.03,7.36,0.00,25.09,29.38,31.67,9.46,48.47,1008.33,2025.95,1427.12,1912.76,1974.65,499.57,488.69,45.63,0000 0000 0000 0000 000000
2014-08-24 06:58:06,0.04,7.36,0.00,25.11,29.40,31.68,9.61,48.37,1008.35,2025.84,1427.06,1912.29,1974.18,500.35,489.48,45.67,0000 0000 0000 0000 000000
2014-08-24 07:03:07,0.02,7.36,0.00,25.15,29.41,31.71,9.51,48.48,1008.37,2025.91,1427.00,1912.08,1974.10,499.66,488.96,45.71,0000 0000 0000 0000 000000
2014-08-24 07:08:08,0.01,7.37,0.00,25.17,29.42,31.71,9.41,48.31,1008.38,2025.93,1426.97,1912.01,1974.07,500.00,489.06,45.75,0000 0000 0000 0000 000000
2014-08-24 07:13:09,-0.04,7.36,0.00,25.19,29.43,31.72,9.59,48.39,1008.40,2025.78,1426.98,1912.00,1974.01,500.77,489.95,45.80,0000 0000 0000 0000 000000
2014-08-24 07:18:10,-0.04,7.36,0.00,25.20,29.45,31.73,9.59,48.42,1008.48,2025.47,1426.84,1912.00,1974.00,500.20,489.37,45.84,0000 0000 0000 0000 000000
2014-08-24 07:23:11,0.05,7.36,0.00,25.25,29.46,31.73,9.59,48.46,1008.61,2025.30,1426.18,1911.99,1974.00,500.26,489.30,45.88,0000 0000 0000 0000 000000
2014-08-24 07:28:13,-0.00,7.36,0.00,25.25,29.47,31.74,9.48,48.38,1008.72,2025.13,1426.01,1911.81,1973.96,500.21,489.43,45.92,0000 0000 0000 0000 000000
2014-08-24 07:33:14,0.04,7.36,0.00,25.27,29.50,31.76,9.53,48.34,1008.79,2025.16,1425.98,1911.48,1973.95,500.15,489.28,45.96,0000 0000 0000 0000 000000
2014-08-24 07:38:15,0.02,7.37,0.00,25.31,29.51,31.77,9.58,48.31,1008.80,2025.11,1425.94,1911.09,1973.64,500.14,489.20,46.01,0000 0000 0000 0000 000000
2014-08-24 07:43:17,0.02,7.37,0.00,25.33,29.52,31.79,9.47,48.38,1008.80,2025.06,1425.81,1911.00,1973.24,500.17,489.08,46.05,0000 0000 0000 0000 000000
2014-08-24 07:48:18,0.04,7.37,0.00,25.37,29.54,31.80,9.44,48.41,1008.81,2025.02,1425.30,1911.00,1973.04,499.84,488.81,46.09,0000 0000 0000 0000 000000
2014-08-24 07:53:19,0.01,7.37,0.00,25.39,29.56,31.81,9.59,48.43,1008.81,2025.00,1425.02,1910.96,1973.00,500.58,489.46,46.13,0000 0000 0000 0000 000000
2014-08-24 07:58:20,0.01,7.37,0.00,25.43,29.57,31.83,9.44,48.38,1008.82,2025.00,1425.00,1910.83,1972.99,499.60,488.45,46.17,0000 0000 0000 0000 000000
2014-08-24 08:03:22,0.04,7.37,0.00,25.48,29.60,31.85,9.52,48.22,1008.99,2025.00,1425.00,1910.40,1972.97,499.77,488.52,46.21,0000 0000 0000 0000 000000
2014-08-24 08:08:23,0.02,7.37,0.00,25.53,29.61,31.86,9.49,48.29,1009.10,2025.00,1425.00,1910.05,1972.80,500.23,489.11,46.26,0000 0000 0000 0000 000000
2014-08-24 08:13:24,0.03,7.37,0.00,25.58,29.63,31.87,9.54,48.28,1009.27,2025.00,1424.95,1910.00,1972.25,499.99,488.87,46.30,0000 0000 0000 0000 000000
2014-08-24 08:18:26,0.02,7.38,0.00,25.63,29.65,31.88,9.61,48.22,1009.29,2024.99,1424.68,1910.00,1972.01,500.16,488.93,46.34,0000 0000 0000 0000 000000
2014-08-24 08:23:27,0.04,7.38,0.00,25.68,29.67,31.91,9.56,48.21,1009.29,2024.98,1424.44,1909.95,1972.00,500.30,488.90,46.38,0000 0000 0000 0000 000000
2014-08-24 08:28:28,0.05,7.38,0.00,25.71,29.70,31.93,9.58,48.23,1009.31,2024.97,1424.08,1909.53,1971.98,500.50,488.92,46.42,0000 0000 0000 0000 000000
2014-08-24 08:33:29,0.03,7.38,0.00,25.75,29.72,31.96,9.53,48.20,1009.34,2024.87,1424.00,1909.04,1971.60,499.72,488.34,46.46,0000 0000 0000 0000 000000
2014-08-24 08:38:31,-0.05,7.38,0.00,25.78,29.75,31.98,9.50,48.16,1009.63,2024.49,1424.00,1909.00,1971.05,500.09,488.89,46.50,0000 0000 0000 0000 000000
2014-08-24 08:43:32,-0.05,7.38,0.00,25.80,29.77,32.02,9.63,48.22,1009.77,2024.12,1424.00,1908.97,1971.00,500.65,489.41,46.55,0000 0000 0000 0000 000000
2014-08-24 08:48:33,0.03,7.38,0.00,25.82,29.79,32.04,9.47,47.98,1009.78,2024.05,1423.99,1908.69,1970.97,499.91,488.68,46.59,0000 0000 0000 0000 000000
2014-08-24 08:53:34,0.05,7.38,0.00,25.87,29.82,32.08,9.47,48.00,1009.78,2024.02,1423.95,1908.10,1970.66,499.97,488.59,46.63,0000 0000 0000 0000 000000
2014-08-24 08:58:35,0.06,7.38,0.00,25.89,29.85,32.11,9.41,48.00,1009.79,2024.00,1423.53,1908.00,1970.07,499.62,488.24,46.67,0000 0000 0000 0000 000000
2014-08-24 09:03:36,0.02,7.38,0.00,25.91,29.88,32.14,9.58,48.07,1009.82,2024.00,1423.09,1907.99,1970.00,500.29,488.82,46.71,0000 0000 0000 0000 000000
2014-08-24 09:08:37,0.02,7.38,0.00,25.93,29.90,32.16,9.49,47.98,1009.87,2023.99,1423.00,1907.82,1969.97,500.00,488.57,46.75,0000 0000 0000 0000 000000
2014-08-24 09:13:38,0.06,7.39,0.00,25.97,29.93,32.19,9.45,48.03,1010.09,2023.98,1423.00,1907.19,1969.72,499.81,488.42,46.79,0000 0000 0000 0000 000000
2014-08-24 09:18:40,0.02,7.39,0.00,26.00,29.96,32.22,9.48,48.05,1010.24,2023.97,1422.99,1907.01,1969.11,499.81,488.54,46.84,0000 0000 0000 0000 000000
2014-08-24 09:23:41,-0.00,7.39,0.00,26.00,29.98,32.24,9.51,48.22,1010.26,2023.88,1422.95,1906.98,1969.00,499.90,488.45,46.88,0000 0000 0000 0000 000000
2014-08-24 09:28:42,-0.03,7.39,0.00,26.02,30.01,32.26,9.56,48.00,1010.27,2023.58,1422.73,1906.83,1968.98,500.34,489.09,46.92,0000 0000 0000 0000 000000
2014-08-24 09:33:43,0.04,7.39,0.00,26.02,30.03,32.30,9.46,47.98,1010.28,2023.13,1422.15,1906.12,1968.67,500.07,488.55,46.96,0000 0000 0000 0000 000000
2014-08-24 09:38:44,0.02,7.39,0.00,26.03,30.06,32.32,9.53,48.01,1010.38,2023.03,1422.02,1906.01,1968.09,500.26,488.90,47.00,0000 0000 0000 0000 000000
2014-08-24 09:43:45,0.00,7.39,0.00,26.04,30.08,32.35,9.55,47.98,1010.71,2023.01,1422.00,1906.00,1968.00,500.06,488.86,47.04,0000 0000 0000 0000 000000
2014-08-24 09:48:47,0.02,7.39,0.00,26.05,30.11,32.37,9.52,48.15,1010.76,2023.00,1421.99,1905.84,1968.00,499.91,488.80,47.09,0000 0000 0000 0000 000000
2014-08-24 09:53:48,0.07,7.39,0.00,26.05,30.13,32.39,9.59,48.17,1010.76,2023.00,1421.93,1905.22,1967.77,499.95,488.59,47.13,0000 0000 0000 0000 000000
2014-08-24 09:58:49,0.07,7.39,0.00,26.09,30.15,32.41,9.46,48.13,1010.76,2022.98,1421.47,1905.00,1967.13,499.85,488.56,47.17,0000 0000 0000 0000 000000
2014-08-24 10:03:51,0.02,7.40,0.00,26.14,30.17,32.44,9.53,47.91,1010.78,2022.97,1421.05,1905.00,1967.01,500.17,488.80,47.21,0000 0000 0000 0000 000000
2014-08-24 10:08:52,0.01,7.40,0.00,26.15,30.20,32.47,9.43,47.89,1010.99,2022.94,1421.00,1904.90,1966.98,499.77,488.33,47.25,0000 0000 0000 0000 000000
2014-08-24 10:13:53,0.01,7.40,0.00,26.16,30.22,32.48,9.43,47.79,1011.24,2022.68,1421.00,1904.28,1966.66,499.90,488.71,47.29,0000 0000 0000 0000 000000
2014-08-24 10:18:54,-0.02,7.40,0.00,26.18,30.24,32.50,9.50,47.91,1011.24,2022.31,1421.00,1904.00,1966.08,500.09,488.91,47.33,0000 0000 0000 0000 000000
2014-08-24 10:23:55,-0.02,7.40,0.00,26.18,30.26,32.53,9.46,47.92,1011.26,2022.12,1420.97,1904.00,1966.00,499.66,488.59,47.38,0000 0000 0000 0000 000000
2014-08-24 10:28:56,0.00,7.40,0.00,26.18,30.28,32.54,9.55,47.92,1011.41,2022.04,1420.79,1903.98,1965.98,500.36,489.05,47.42,0000 0000 0000 0000 000000
2014-08-24 10:33:58,0.06,7.40,0.00,26.18,30.30,32.57,9.47,47.93,1011.68,2022.01,1420.61,1903.69,1965.78,499.78,488.92,47.46,0000 0000 0000 0000 000000
2014-08-24 10:38:59,0.09,7.40,0.00,26.17,30.32,32.59,9.57,47.94,1011.72,2022.00,1420.10,1903.06,1965.11,500.16,489.11,47.50,0000 0000 0000 0000 000000
2014-08-24 10:44:00,0.00,7.40,0.00,26.17,30.34,32.62,9.61,48.04,1011.73,2022.00,1420.00,1903.00,1965.00,499.94,488.95,47.54,0000 0000 0000 0000 000000
2014-08-24 10:49:01,0.00,7.40,0.00,26.18,30.36,32.63,9.56,47.91,1011.73,2022.00,1420.00,1902.97,1964.98,499.78,488.78,47.58,0000 0000 0000 0000 000000
2014-08-24 10:54:02,0.07,7.40,0.00,26.19,30.37,32.64,9.50,47.92,1011.73,2021.99,1419.97,1902.48,1964.71,500.04,489.03,47.63,0000 0000 0000 0000 000000
2014-08-24 10:59:04,0.05,7.41,0.00,26.22,30.39,32.66,9.50,47.98,1011.74,2021.94,1419.70,1902.03,1964.11,500.22,489.22,47.67,0000 0000 0000 0000 000000
2014-08-24 11:04:05,0.03,7.41,0.00,26.24,30.41,32.69,9.58,47.99,1011.76,2021.88,1419.14,1902.00,1964.01,500.06,489.07,47.71,0000 0000 0000 0000 000000
2014-08-24 11:09:06,0.01,7.41,0.00,26.25,30.42,32.70,9.45,47.94,1011.93,2021.86,1419.01,1901.99,1964.00,499.78,488.81,47.75,0000 0000 0000 0000 000000
2014-08-24 11:14:07,-0.04,7.41,0.00,26.24,30.44,32.72,9.48,48.02,1012.16,2021.65,1419.00,1901.91,1963.95,499.73,488.88,47.79,0000 0000 0000 0000 000000
2014-08-24 11:19:08,0.02,7.41,0.00,26.24,30.45,32.72,9.37,48.04,1012.22,2021.46,1419.00,1901.46,1963.72,500.06,489.20,47.83,0000 0000 0000 0000 000000
2014-08-24 11:24:09,0.01,7.41,0.00,26.27,30.47,32.74,9.45,47.92,1012.22,2021.27,1418.97,1901.05,1963.13,499.87,488.91,47.87,0000 0000 0000 0000 000000
2014-08-24 11:29:10,0.03,7.41,0.00,26.28,30.48,32.75,9.47,48.00,1012.23,2021.13,1418.61,1901.00,1963.00,499.97,489.07,47.92,0000 0000 0000 0000 000000
2014-08-24 11:34:12,0.02,7.41,0.00,26.28,30.50,32.77,9.56,48.12,1012.28,2021.11,1418.25,1901.00,1963.00,499.77,489.14,47.96,0000 0000 0000 0000 000000
2014-08-24 11:39:13,0.01,7.41,0.00,26.29,30.51,32.79,9.57,48.25,1012.45,2021.03,1418.04,1900.97,1962.97,499.95,489.09,48.00,0000 0000 0000 0000 000000
2014-08-24 11:44:15,0.06,7.41,0.00,26.31,30.52,32.78,9.58,48.12,1012.67,2021.02,1418.01,1900.51,1962.56,500.47,489.76,48.04,0000 0000 0000 0000 000000
2014-08-24 11:49:16,0.03,7.42,0.00,26.29,30.54,32.81,9.53,48.13,1012.70,2021.01,1417.99,1900.10,1962.09,500.11,489.27,48.08,0000 0000 0000 0000 000000
2014-08-24 11:54:17,0.00,7.42,0.00,26.29,30.55,32.83,9.60,48.21,1012.70,2021.00,1417.98,1900.00,1962.00,500.35,489.68,48.12,0000 0000 0000 0000 000000
2014-08-24 11:59:19,0.03,7.42,0.00,26.29,30.57,32.84,9.41,48.25,1012.71,2021.00,1417.67,1899.99,1962.00,499.77,489.07,48.17,0000 0000 0000 0000 000000
2014-08-24 12:04:20,0.03,7.42,0.00,26.29,30.57,32.85,9.56,48.36,1012.71,2021.00,1417.20,1899.94,1961.92,500.35,489.89,48.21,0000 0000 0000 0000 000000
2014-08-24 12:09:21,0.05,7.42,0.00,26.30,30.59,32.87,9.51,48.19,1012.71,2020.99,1417.02,1899.68,1961.56,499.97,489.20,48.25,0000 0000 0000 0000 000000
2014-08-24 12:14:22,0.05,7.42,0.00,26.30,30.60,32.87,9.54,48.18,1012.71,2020.99,1417.00,1899.12,1961.08,500.02,489.35,48.29,0000 0000 0000 0000 000000
2014-08-24 12:19:23,0.00,7.43,0.00,26.31,30.61,32.88,9.41,48.17,1012.71,2020.98,1417.00,1899.01,1961.00,499.96,489.31,48.33,0000 0000 0000 0000 000000
2014-08-24 12:24:24,0.00,7.43,0.00,26.32,30.62,32.90,9.55,48.32,1012.71,2020.96,1416.95,1899.00,1961.00,500.80,490.08,48.37,0000 0000 0000 0000 000000
2014-08-24 12:29:25,0.04,7.43,0.00,26.30,30.63,32.91,9.42,48.20,1012.71,2020.98,1416.55,1898.98,1960.96,499.65,489.07,48.42,0000 0000 0000 0000 000000
2014-08-24 12:34:27,0.05,7.43,0.00,26.30,30.64,32.92,9.57,48.06,1012.72,2020.93,1416.14,1898.83,1960.71,499.87,489.11,48.46,0000 0000 0000 0000 000000
2014-08-24 12:39:28,0.05,7.43,0.00,26.29,30.65,32.92,9.58,48.04,1012.72,2020.87,1416.01,1898.30,1960.12,500.22,489.61,48.50,0000 0000 0000 0000 000000
2014-08-24 12:44:29,-0.02,7.43,0.00,26.27,30.65,32.94,9.62,48.04,1012.74,2020.78,1416.00,1898.05,1960.01,499.94,489.30,48.54,0000 0000 0000 0000 000000
2014-08-24 12:49:30,-0.01,7.43,0.00,26.29,30.66,32.95,9.57,48.12,1012.73,2020.67,1416.00,1898.00,1960.00,500.16,489.52,48.58,0000 0000 0000 0000 000000
2014-08-24 12:54:32,-0.05,7.43,0.00,26.29,30.67,32.95,9.54,48.15,1012.84,2020.39,1415.99,1898.00,1959.99,499.69,489.25,48.62,0000 0000 0000 0000 000000
2014-08-24 12:59:33,0.06,7.43,0.00,26.31,30.67,32.95,9.52,48.24,1012.99,2020.62,1415.91,1897.99,1959.96,500.65,490.06,48.67,0000 0000 0000 0000 000000